Flag for Canada Weather past 2 weeks in Rae-Edzo, Northwest Territories, Canada

Now
30 °F

Chilly.


Feels Like: 22 °F
Forecast: 12 / 35 °F
Wind: 9 mph from Southeast

Location: Lac La Martre

Current Time: Apr 25, 2015 at 2:38:41 PM

Latest Report: Apr 25, 2015 at 2:00 PM


Visibility: N/A

Pressure: 30.30 "Hg

Humidity: 58%

Dew point: 17 °F

Location of Rae-EdzoLocation

Historic Weather in Rae-Edzo — Graph

°F

Rae-Edzo temperature yesterday

Maximum temperature yesterday: 31 °F (at 5:00 PM)
Minimum temperature yesterday: 8 °F (at 6:00 AM)
Average temperature yesterday: 21 °F

Past Weeks' High & Low Weather Summary

 TemperatureHumidityPressure
High59 °F (Apr 10, 3:00 PM)100% (Apr 12, 5:00 AM)30.39 "Hg (Apr 12, 5:00 AM)
Low7 °F (Apr 14, 7:00 AM)23% (Apr 10, 3:00 PM)28.99 "Hg (Apr 11, 2:00 PM)
Average31 °F65%29.89 "Hg
* Reported Apr 10 1:00 PM — Apr 25 1:00 PM, Rae-Edzo, Weather by CustomWeather, © 2015

Note: Actual official high and low records may vary slightly from our data, if they occured in-between our weather recording intervals... More about our weather records

Advertising

Rae-Edzo weather history for previous 24 hours

 ConditionsComfort  
Time TempWeatherWind HumidityBarometerVisibility
1:00 PM
Sat, Apr 25
29 °FChilly.8 mph55%30.30 "HgN/A
12:00 PM27 °FChilly.10 mph58%30.31 "HgN/A
11:00 AM25 °FCold.8 mph57%30.32 "HgN/A
10:00 AM21 °FCold.8 mph65%30.33 "HgN/A
9:00 AM18 °FCold.8 mph71%30.34 "HgN/A
8:00 AM15 °FCold.8 mph85%30.34 "HgN/A
7:00 AM13 °FCold.7 mph81%30.34 "HgN/A
6:00 AM12 °FCold.7 mph85%30.34 "HgN/A
5:00 AM13 °FCold.8 mph82%30.34 "HgN/A
4:00 AM15 °FCold.7 mph81%30.34 "HgN/A
3:00 AM17 °FCold.8 mph79%30.34 "HgN/A
2:00 AM19 °FCold.8 mph77%30.34 "HgN/A
1:00 AM21 °FCold.7 mph73%30.34 "HgN/A
12:00 AM23 °FCold.8 mph67%30.33 "HgN/A
11:00 PM
Fri, Apr 24
23 °FCold.5 mph70%30.33 "HgN/A
10:00 PM25 °FChilly.5 mph56%30.33 "HgN/A
9:00 PM28 °FChilly.8 mph48%30.32 "HgN/A
8:00 PM30 °FChilly.9 mph43%30.32 "HgN/A
7:00 PM31 °FChilly.8 mph41%30.32 "HgN/A
6:00 PM31 °FChilly.7 mph39%30.33 "HgN/A
5:00 PM31 °FChilly.10 mph41%30.33 "HgN/A
4:00 PM30 °FChilly.10 mph42%30.34 "HgN/A
3:00 PM29 °FChilly.9 mph45%30.35 "HgN/A
2:00 PM27 °FChilly.9 mph50%30.36 "HgN/A
Weather by CustomWeather, © 2015

See weather overviewHow to use our weather pages